Location: Unspecified
(44.0704°N, 88.6889°W)
Time: 20:15:57
(UTC+01:00)

Okean 3 - Visible Passes

Search period start: 24 March 2019 00:00
Search period end: 03 April 2019 01:00
Orbit: 577 x 601 km, 82.5° (Epoch: 23 March)

Date Brightness Start Highest point End Pass type
(mag) Time Alt. Az. Time Alt. Az. Time Alt. Az.
24 Mar 4.4 11:11:55 10° SSE 11:16:04 50° E 11:20:15 10° NNE visible
25 Mar 3.6 11:19:43 10° S 11:23:59 76° E 11:28:19 10° NNE visible
26 Mar 6.7 09:54:53 10° E 09:55:25 10° E 09:55:55 10° ENE visible
26 Mar 3.4 11:27:41 10° SSW 11:31:58 73° W 11:36:18 10° N visible
27 Mar 6.3 10:00:42 10° ESE 10:03:11 15° E 10:05:41 10° NE visible
27 Mar 3.7 11:35:50 10° SSW 11:39:59 48° WNW 11:44:11 10° N visible
28 Mar 5.8 10:07:47 10° SE 10:11:00 22° E 10:14:19 10° NE visible
28 Mar 4.2 11:44:22 11° SW 11:48:02 33° WNW 11:51:57 10° N visible
29 Mar 5.2 10:16:20 17° SE 10:18:51 31° E 10:22:41 10° NNE visible
29 Mar 4.7 11:52:53 11° SW 11:56:08 23° WNW 11:59:37 10° NNW visible
30 Mar 4.4 10:24:47 27° SSE 10:26:45 46° E 10:30:53 10° NNE visible
30 Mar 5.1 12:01:30 10° WSW 12:04:16 16° WNW 12:07:02 10° NNW visible
31 Mar 3.7 11:33:09 38° SSE 11:34:41 70° E 11:38:59 10° NNE visible
01 Apr 3.4 11:41:28 47° SSW 11:42:38 79° W 11:46:58 10° N visible
02 Apr 6.2 10:13:11 14° E 10:13:53 14° E 10:16:08 10° NE visible
02 Apr 3.6 11:49:44 43° WSW 11:50:38 52° WNW 11:54:52 10° N visible
